Weather History for Swansboro, NC

Change the Weather History Date:

Monday, February 18, 2013

  Actual Average (KNKT) Record (KNKT)
Temperature  
Mean Temperature 35 °F -  
Max Temperature 48 °F 56 °F 73 °F (2011)
Min Temperature 24 °F 35 °F 19 °F (2013)
Degree Days  
Heating Degree Days 30    
Moisture  
Dew Point 19 °F    
Average Humidity 48    
Maximum Humidity 65    
Minimum Humidity 31    
Precipitation  
Precipitation 0.00 in - - ()
Sea Level Pressure  
Sea Level Pressure 30.40 in    
Wind  
Wind Speed 5 mph (SW)    
Max Wind Speed 9 mph    
Max Gust Speed -    
Visibility 10 miles    
Events      
Averages and records for this station are not official NWS values.
T = Trace of Precipitation, MM = Missing Value Source: NWS Daily Summary

Daily Weather History Graph

Daily Weather History Graph

Search for Another Location

Airport:

Trip Planner

Search our weather history database for the weather conditions in past years. The results will help you decide how hot, cold, wet, or windy it might be!

Date:

Astronomy

Feb. 18, 2013 Rise Set
Actual Time 6:50 AM EST 5:54 PM EST
Civil Twilight 6:24 AM EST 6:19 PM EST
Nautical Twilight 5:55 AM EST 6:49 PM EST
Astronomical Twilight 5:25 AM EST 7:18 PM EST
Moon 11:45 AM EST (2/18) 1:21 AM EST (2/18)
Length of Visible Light 11h 55m
Length of Day
11h 04m
First Quarter, 58% of the Moon is Illuminated
Feb 18
First Quarter
Feb 25
Full
Mar 4
Last Quarter
Mar 11
New
Mar 19
First Quarter

Hourly Weather History & Observations

Time (EST) Temp. Windchill Dew Point Humidity Pressure Visibility Wind Dir Wind Speed Gust Speed Precip Events Conditions
12:57 AM 28.9 °F 23.9 °F 17.1 °F 61% 30.34 in 10.0 mi NNW 4.6 mph - N/A   Clear
1:57 AM 27.0 °F 23.0 °F 16.0 °F 63% 30.35 in 10.0 mi NNW 3.5 mph - N/A   Clear
2:57 AM 27.0 °F 21.6 °F 14.0 °F 58% 30.35 in 10.0 mi North 4.6 mph - N/A   Clear
3:57 AM 27.0 °F 23.0 °F 12.0 °F 53% 30.36 in 10.0 mi NNW 3.5 mph - N/A   Clear
4:57 AM 25.0 °F 20.7 °F 12.0 °F 58% 30.39 in 10.0 mi NNW 3.5 mph - N/A   Clear
5:57 AM 24.1 °F 18.2 °F 14.0 °F 65% 30.41 in 10.0 mi North 4.6 mph - N/A   Clear
6:57 AM 24.1 °F 19.7 °F 14.0 °F 65% 30.43 in 10.0 mi North 3.5 mph - N/A   Clear
7:57 AM 28.9 °F - 16.0 °F 58% 30.45 in 10.0 mi Calm Calm - N/A   Clear
8:57 AM 34.0 °F - 12.0 °F 40% 30.47 in 10.0 mi Calm Calm - N/A   Clear
9:57 AM 37.9 °F 32.7 °F 10.0 °F 32% 30.48 in 10.0 mi NE 6.9 mph - N/A   Clear
10:57 AM 42.1 °F 39.2 °F 12.9 °F 31% 30.47 in 10.0 mi Variable 4.6 mph - N/A   Clear
11:57 AM 42.1 °F 36.6 °F 18.0 °F 38% 30.46 in 10.0 mi South 9.2 mph - N/A   Clear
12:57 PM 42.1 °F 38.4 °F 17.1 °F 37% 30.44 in 10.0 mi SE 5.8 mph - N/A   Clear
1:57 PM 44.1 °F 39.5 °F 19.9 °F 38% 30.41 in 10.0 mi South 8.1 mph - N/A   Clear
2:57 PM 45.0 °F 41.2 °F 19.0 °F 36% 30.40 in 10.0 mi South 6.9 mph - N/A   Clear
3:57 PM 45.0 °F 41.2 °F 21.0 °F 39% 30.40 in 10.0 mi South 6.9 mph - N/A   Clear
4:57 PM 45.0 °F 40.1 °F 21.9 °F 40% 30.40 in 10.0 mi SSW 9.2 mph - N/A   Clear
5:57 PM 43.0 °F 39.5 °F 23.0 °F 45% 30.40 in 10.0 mi SSW 5.8 mph - N/A   Clear
6:57 PM 44.1 °F 39.5 °F 24.1 °F 45% 30.40 in 10.0 mi SSW 8.1 mph - N/A   Clear
7:57 PM 45.0 °F 40.1 °F 24.1 °F 44% 30.40 in 10.0 mi SW 9.2 mph - N/A   Clear
8:57 PM 46.0 °F 41.4 °F 25.0 °F 44% 30.39 in 10.0 mi SW 9.2 mph - N/A   Clear
9:57 PM 46.9 °F - 28.9 °F 50% 30.39 in 10.0 mi SSW 8.1 mph - N/A   Clear
10:57 PM 46.9 °F - 33.1 °F 59% 30.35 in 10.0 mi SSW 6.9 mph - N/A   Clear
11:57 PM 48.9 °F - 35.1 °F 59% 30.34 in 10.0 mi SSW 9.2 mph - N/A   Clear